User: anonymous   Login
Location: Pella
(41.4080°N, 92.9160°W)
Time: 07:59:50
(UTC-05:00)
Language:

Iridium 91 - Orbit

View from above orbital plane
View from above orbital plane
View from above satellite
View from above satellite

Ground track
Ground track

The orbit data is extracted from the following two-line orbital elements,

1 27372U 02005A   16145.36779655  .00000181  00000-0  57560-4 0  9990
2 27372  86.3979  90.3542 0002547  84.1018  73.7898 14.34222157755895
Epoch (UTC): 24 May 2016 08:49:37
Eccentricity: 0.0002547
inclination: 86.3979°
perigee height: 776 km
apogee height: 779 km
right ascension of ascending node: 90.3542°
argument of perigee: 84.1018°
revolutions per day: 14.34222157
mean anomaly at epoch: 73.7898°
orbit number at epoch: 75589

The dashed part of the orbit path shows where the satellite is in the earth's shadow,  

DLR